sat.trackr.live / text

‹ back to catalog

STARLINK-11684 [DTC]

NORAD 64240 · 2025-119H

PAYLOAD ACTIVE UNKNOWN

§ Identity

Operator
Country
US
Launch date
2025-06-03
Launch site
AFETR
Launch vehicle
Mass (kg)
RCS (m²)

Purposes: comms

External: N2YO · Heavens-Above · Gunter

§ Orbital elements

Epoch: 2026-05-25T04:23:43.325376Z

Period
91.67 min
Inclination
43.0009°
Eccentricity
0.0002024
Mean motion
15.70865572 rev/d
Perigee alt
355.1 km
Apogee alt
357.8 km
Semi-major
6,734.6 km
B*
1.3116e-3
RAAN
108.1690°
Arg perigee
267.5988°
Mean anomaly
92.4648°
Rev number
5,727

§ Raw data

STARLINK-11684 [DTC]1 64240U 25119H   26145.18314034  .00171549  00000+0  13116-2 0  99962 64240  43.0009 108.1690 0002024 267.5988  92.4648 15.70865572 57272

JSON: /api/v1/satellites/64240 · /tle

For live sub-satellite position, see the globe view (requires WebGL).

§ Visibility from observer

Set your observer location to see the next 7 days of passes ≥ 10°. The values pass through the URL so the page stays shareable.

No JS? Fill the form by hand. The geolocation button needs JavaScript.